Location: Balsareny
(41.8670°N, 1.8830°E)
Time: 01:10:44
(UTC+02:00)

X-37B - Pass Details

Date: 28 June 2021
Orbit: 383 x 392 km, 45.0° (Epoch: 01 July)

Event Time Altitude Azimuth Distance (km) Brightness Sun altitude
Rises 01:01:14 0° 288° (WNW) 2,256 4.9 -23.6°
Reaches altitude 10° 01:03:18 10° 291° (WNW) 1,401 3.8 -23.7°
Enters shadow 01:04:26 20° 294° (WNW) 953 2.9 -23.8°
